Flag for U.S.A. Weather past 2 weeks in San Francisco, California, U.S.A.

Now
64 °F

Passing clouds.


Feels Like: 64 °F
Forecast: 61 / 70 °F
Wind: 8 mph from West

Location: San Francisco International Airport

Current Time: Aug 4, 2015 at 11:31:22 PM

Latest Report: Aug 4, 2015 at 10:56 PM


Visibility: 10 mi

Pressure: 30.02 "Hg

Humidity: 78%

Dew point: 57 °F

Location of San FranciscoLocation

Historic Weather in San Francisco — Graph

°F

San Francisco temperature yesterday

Maximum temperature yesterday: 73 °F (at 2:56 PM)
Minimum temperature yesterday: 63 °F (at 12:56 AM)
Average temperature yesterday: 67 °F

Past Weeks' High & Low Weather Summary

 TemperatureHumidityPressure
High87 °F (Jul 28, 1:56 PM)93% (Jul 29, 5:56 AM)30.13 "Hg (Jul 29, 5:56 AM)
Low57 °F (Jul 27, 4:56 AM)30% (Jul 28, 1:56 PM)29.82 "Hg (Jul 28, 6:56 PM)
Average65 °F72%29.96 "Hg
* Reported Jul 20 9:56 PM — Aug 4 9:56 PM, San Francisco, Weather by CustomWeather, © 2015

Note: Actual official high and low records may vary slightly from our data, if they occured in-between our weather recording intervals... More about our weather records

Advertising

San Francisco weather history for previous 24 hours

 ConditionsComfort  
Time TempWeatherWind HumidityBarometerVisibility
9:56 PM
Tue, Aug 4
65 °FPassing clouds.7 mph76%30.01 "Hg10 mi
8:56 PM66 °FPartly sunny.9 mph70%30.01 "Hg10 mi
7:56 PM68 °FPartly sunny.12 mph63%29.99 "Hg10 mi
6:56 PM70 °FScattered clouds.13 mph59%29.98 "Hg10 mi
5:56 PM72 °FScattered clouds.16 mph53%29.98 "Hg10 mi
4:56 PM72 °FScattered clouds.13 mph52%29.99 "Hg10 mi
3:56 PM71 °FBroken clouds.15 mph51%30.00 "Hg10 mi
2:56 PM71 °FBroken clouds.15 mph51%30.02 "Hg10 mi
1:56 PM70 °FLight rain. Broken clouds.14 mph55%30.01 "Hg10 mi
12:56 PM69 °FBroken clouds.9 mph55%30.00 "Hg10 mi
11:56 AM68 °FPartly sunny.6 mph59%30.01 "Hg10 mi
10:56 AM68 °FOvercast.10 mph59%30.01 "Hg10 mi
9:56 AM66 °FBroken clouds.8 mph65%29.99 "Hg10 mi
8:56 AM66 °FPartly sunny.7 mph68%29.98 "Hg10 mi
7:56 AM63 °FScattered clouds.6 mph78%29.98 "Hg10 mi
6:56 AM62 °FPassing clouds.5 mph80%29.98 "Hg10 mi
5:56 AM61 °FPassing clouds.5 mph83%29.97 "Hg10 mi
4:56 AM62 °FPassing clouds.7 mph83%29.96 "Hg10 mi
3:56 AM63 °FPassing clouds.5 mph81%29.97 "Hg10 mi
2:56 AM63 °FPassing clouds.7 mph81%29.96 "Hg10 mi
1:56 AM64 °FPassing clouds.8 mph78%29.97 "Hg10 mi
12:56 AM64 °FPassing clouds.9 mph78%29.97 "Hg10 mi
11:56 PM
Mon, Aug 3
65 °FPassing clouds.7 mph70%29.96 "Hg10 mi
Weather by CustomWeather, © 2015

See weather overviewHow to use our weather pages